Flag for South Korea Weather past 2 weeks in Daegu, South Korea

Now
61 °F

Sunny.


Feels Like: 61 °F
Forecast: 57 / 87 °F
Wind: 5 mph from Southeast

Location: Taegu Ab

Current Time: May 29, 2015 at 8:02:50 AM

Latest Report: May 29, 2015 at 7:00 AM


Visibility: 10 mi

Pressure: 29.80 "Hg

Humidity: 77%

Dew point: 54 °F

Location of DaeguLocation

Historic Weather in Daegu — Graph

°F

Daegu temperature yesterday

Maximum temperature yesterday: 88 °F (at 4:00 PM)
Minimum temperature yesterday: 63 °F (at 5:00 AM)
Average temperature yesterday: 74 °F

Past Weeks' High & Low Weather Summary

 TemperatureHumidityPressure
High91 °F (May 26, 4:00 PM)100% (May 19, 5:00 AM)29.98 "Hg (May 19, 5:00 AM)
Low48 °F (May 21, 5:00 AM)10% (May 26, 6:00 PM)29.59 "Hg (May 18, 5:00 PM)
Average71 °F50%29.77 "Hg
* Reported May 14 6:00 AM — May 29 6:00 AM, Daegu, Weather by CustomWeather, © 2015

Note: Actual official high and low records may vary slightly from our data, if they occured in-between our weather recording intervals... More about our weather records

Advertising

Daegu weather history for previous 24 hours

 ConditionsComfort  
Time TempWeatherWind HumidityBarometerVisibility
6:00 AM
Fri, May 29
57 °FSunny.2 mph82%29.83 "Hg10 mi
5:00 AM57 °FClear.1 mph77%29.80 "Hg10 mi
4:00 AM57 °FClear.1 mph77%29.80 "Hg10 mi
3:00 AM59 °FClear.1 mph72%29.80 "Hg10 mi
2:00 AM61 °FClear.3 mph72%29.80 "Hg10 mi
1:00 AM63 °FClear.2 mph68%29.80 "Hg10 mi
12:00 AM66 °FClear.2 mph64%29.83 "Hg10 mi
11:00 PM
Thu, May 28
70 °FClear.7 mph60%29.80 "Hg10 mi
10:00 PM73 °FClear.2 mph53%29.80 "Hg10 mi
9:00 PM73 °FClear.2 mph50%29.77 "Hg10 mi
8:00 PM77 °FClear.6 mph44%29.74 "Hg10 mi
7:00 PM82 °FSunny.14 mph37%29.74 "Hg10 mi
6:00 PM84 °FPassing clouds.10 mph33%29.74 "HgN/A
5:00 PM88 °FPassing clouds.8 mph29%29.71 "HgN/A
4:00 PM88 °FPassing clouds.5 mph27%29.71 "HgN/A
3:00 PM86 °FSunny.5 mph29%29.74 "Hg10 mi
2:00 PM84 °FSunny.5 mph31%29.74 "Hg10 mi
1:00 PM82 °FSunny.8 mph35%29.77 "Hg10 mi
12:00 PM77 °FSunny.12 mph44%29.80 "Hg10 mi
11:00 AM73 °FSunny.12 mph50%29.83 "Hg10 mi
10:00 AM72 °FSunny.6 mph61%29.83 "Hg10 mi
9:00 AM68 °FSunny.3 mph69%29.83 "Hg10 mi
8:00 AM66 °FSunny.5 mph68%29.83 "Hg10 mi
Weather by CustomWeather, © 2015

See weather overviewHow to use our weather pages